[[{"header":{"parameterUnit":"m.s-1","parameterCategory":1,"la1":30.2991,"la2":30.254,"lo1":-89.0895,"lo2":-89.0444,"dy":0.0017,"dx":0.0017,"nx":28,"ny":28,"refTime":"2024-05-17T03:00:00:Z","depth":0,"parameterNumber":2,"parameterNumberName":"U-component_of_WINDS"},"data":[0,0,0,0,0,0,0,0,0,0,0,0,0,0,0,0,0,0,0,0,0,0,0,0,0,0,0,0,0,0,0,0,0,0,0,0,0,0,0,0,0,0,0,0,0,0,0,0,0,0,0,0,0,0,0,0,0,0,0.2455,0.2455,0,0.2462,0.2462,0.2462,0.2413,0.2411,0.241,0.2409,0.2419,0.2421,0.2423,0,0,0,0,0,0,0,0,0,0,0,0,0,0.2403,0.2405,0.2455,0.2455,0.2456,0.2462,0.2462,0.2462,0.2413,0.2411,0.241,0.2408,0.2419,0.2421,0.2423,0,0,0,0,0,0,0,0,0,0,0,0,0,0.242,0.2405,0.2455,0.2432,0.243,0.2462,0.2462,0.2462,0.2413,0.2411,0.2409,0.2407,0.2418,0.2421,0.2423,0.2479,0,0,0.243,0.2431,0,0,0,0,0,0,0,0,0.2419,0.2422,0.2435,0.2433,0.2431,0.2434,0.2447,0.2468,0.2414,0.242,0.2409,0.2406,0.2426,0.2428,0.2434,0.248,0.248,0.243,0.2432,0.2433,0.2434,0,0,0,0,0,0,0,0.2418,0.2421,0.2458,0.2435,0.2433,0.2422,0.2422,0.2451,0.2435,0.2419,0.2415,0.2417,0.2425,0.2432,0.2434,0.248,0.243,0.2432,0.2434,0.2435,0.2572,0.2574,0,0,0,0,0,0,0.2419,0.2421,0.2458,0.2458,0.242,0.2424,0.2424,0.2435,0.2434,0.2432,0.2418,0.2414,0.2429,0.2431,0.2434,0.2499,0.2433,0.2435,0.2436,0.2569,0.2572,0.2574,0,0,0,0,0,0,0.2418,0.2423,0.2458,0.2438,0.2442,0.2427,0.244,0.2437,0.2443,0.2434,0.2431,0.2428,0.2427,0.2431,0.2468,0.2499,0.2436,0.2438,0.2567,0.257,0.2573,0.263,0,0,0,0,0,0,0.2417,0.2423,0.2444,0.2439,0.2443,0.2491,0.2442,0.2438,0.2447,0.2442,0.2442,0.244,0.2426,0.2464,0.247,0.2501,0.244,0.2564,0.2568,0.2572,0.2626,0.2635,0.2643,0,0,0,0,0,0.2416,0.2461,0.2445,0.245,0.2468,0.2493,0.2495,0.2476,0.245,0.2471,0.2464,0.244,0.2494,0.2469,0.2475,0.2507,0.2562,0.2567,0.2572,0.2622,0.2633,0.2643,0,0,0,0,0,0,0.2471,0.246,0.2442,0.2487,0.2491,0.2484,0.251,0.2489,0.2502,0.2496,0.2474,0.2474,0.2515,0.2514,0.2486,0.256,0.2524,0.253,0.2559,0.257,0.2579,0.2579,0.2442,0,0,0,0,0,0.2489,0.2508,0.2497,0.2538,0.2541,0.2525,0.2535,0.252,0.2523,0.2525,0.2522,0.2527,0.2545,0.2558,0.2574,0.2625,0.2624,0.265,0.2659,0.2666,0.2672,0.2698,0.2709,0.2591,0.2591,0.2591,0,0,0.2525,0.2521,0.2535,0.2549,0.255,0.2572,0.2527,0.2552,0.2568,0.253,0.2564,0.2561,0.2566,0.261,0.2629,0.2611,0.2704,0.2672,0.2678,0.268,0.2705,0.2716,0.2726,0.2594,0.2594,0.2593,0,0,0.2602,0.2601,0.2635,0.2636,0.2638,0.2627,0.2635,0.2631,0.2627,0.2661,0.2632,0.2651,0.2683,0.2687,0.2693,0.277,0.2748,0.2776,0.2823,0.2849,0.2858,0.2866,0.2893,0.2903,0.2782,0.2782,0.2782,0,0.2648,0.2678,0.2655,0.2681,0.2688,0.2652,0.2686,0.2689,0.2697,0.2703,0.2681,0.2719,0.272,0.2764,0.2782,0.2789,0.2798,0.2776,0.2858,0.2866,0.2873,0.2899,0.291,0.2785,0.2785,0.2785,0.2784,0,0.2734,0.2755,0.2782,0.2788,0.2798,0.2828,0.281,0.2823,0.2806,0.2798,0.2833,0.2832,0.2846,0.2856,0.2841,0.2898,0.2886,0.2862,0.2825,0.2888,0.2912,0.2922,0.279,0.2789,0.2788,0.2787,0,0,0.2848,0.2839,0.2849,0.2851,0.285,0.2866,0.2894,0.2907,0.2919,0.2925,0.2948,0.2975,0.2952,0.2959,0.2944,0.2967,0.3027,0.2939,0.2939,0.2956,0.3089,0.3107,0.3119,0.3012,0.3014,0.3015,0.3089,0,0.2923,0.2969,0.2949,0.2998,0.3017,0.2983,0.3007,0.3009,0.3002,0.3018,0.301,0.3029,0.2997,0.3001,0.3022,0.3015,0.3054,0.301,0.3034,0.3035,0.3034,0.3132,0.3151,0.3221,0.3098,0.3099,0.3101,0,0.3017,0.3025,0.3075,0.3069,0.3076,0.3099,0.3108,0.3123,0.3125,0.3118,0.3125,0.3104,0.3132,0.3094,0.3132,0.3103,0.3112,0.311,0.3112,0.3114,0.3072,0.3137,0.3243,0.3253,0.3115,0.3114,0.3113,0,0.3094,0.3118,0.3151,0.3154,0.3147,0.3164,0.3162,0.3161,0.317,0.3179,0.3184,0.3196,0.3203,0.3214,0.3197,0.3171,0.3237,0.3198,0.3233,0.3233,0.3249,0.3248,0.3358,0.3254,0.3254,0.3254,0.3254,0,0.3181,0.3213,0.3185,0.3206,0.3241,0.3217,0.3253,0.3247,0.3247,0.3266,0.3237,0.3256,0.3233,0.325,0.3237,0.3271,0.3274,0.327,0.3266,0.3272,0.3273,0.3278,0.3273,0.3257,0.3256,0.3256,0.3255,0,0.3274,0.3256,0.329,0.328,0.3279,0.3305,0.3297,0.3316,0.3306,0.3331,0.3335,0.332,0.3338,0.3322,0.334,0.3331,0.3375,0.3365,0.3375,0.3372,0.3407,0.3404,0.3524,0.3539,0.3426,0.3427,0.3428,0,0.333,0.3353,0.3346,0.3356,0.3355,0.3372,0.338,0.3357,0.3367,0.337,0.3389,0.3404,0.3415,0.3445,0.3436,0.345,0.3439,0.348,0.3441,0.3447,0.344,0.3439,0.3441,0.3489,0.349,0.3491,0.3492,0,0.3431,0.3421,0.3433,0.3442,0.3452,0.3458,0.3463,0.3473,0.3449,0.3462,0.3479,0.3487,0.3504,0.352,0.353,0.3529,0.3507,0.3504,0.3513,0.352,0.3524,0.3522,0.3396,0.3502,0.3501,0.35,0.35,0.3499,0.3507,0.3526,0.3523,0.3538,0.3538,0.3542,0.3559,0.355,0.3564,0.3575,0.3561,0.3582,0.3582,0.3593,0.3595,0.3611,0.3594,0.3607,0.361,0.3614,0.3619,0.3521,0.3613,0.3613,0.3613,0.3612,0.3612,0,0.3607,0.3603,0.3616,0.3622,0.3633,0.3609,0.3613,0.3624,0.3642,0.3644,0.3654,0.3674,0.3689,0.368,0.3693,0.3708,0.3698,0.3712,0.3711,0.3711,0.3633,0.3625,0.372,0.372,0.372,0.372,0.372,0.3719,0.366,0.3691,0.368,0.3711,0.3707,0.3726,0.373,0.3734,0.3735,0.3757,0.3769,0.3762,0.376,0.3772,0.3784,0.3781,0.3788,0.3805,0.3799,0.3727,0.3716,0.3706,0.3698,0.3807,0.3807,0.3875,0.3875,0.3876]},{"header":{"parameterUnit":"m.s-1","parameterCategory":1,"la1":30.2991,"la2":30.254,"lo1":-89.0895,"lo2":-89.0444,"dy":0.0017,"dx":0.0017,"nx":28,"ny":28,"refTime":"2024-05-17T03:00:00:Z","depth":0,"parameterNumber":3,"parameterNumberName":"V-component_of_WINDS"},"data":[0,0,0,0,0,0,0,0,0,0,0,0,0,0,0,0,0,0,0,0,0,0,0,0,0,0,0,0,0,0,0,0,0,0,0,0,0,0,0,0,0,0,0,0,0,0,0,0,0,0,0,0,0,0,0,0,0,0,6.7668,6.7669,0,6.7768,6.7769,6.777,6.7718,6.7715,6.7712,6.771,6.7804,6.7809,6.7814,0,0,0,0,0,0,0,0,0,0,0,0,0,6.7421,6.7426,6.7667,6.7669,6.767,6.7768,6.7769,6.777,6.7718,6.7715,6.7712,6.7709,6.7803,6.7808,6.7814,0,0,0,0,0,0,0,0,0,0,0,0,0,6.7525,6.7427,6.7667,6.7656,6.7656,6.7768,6.7769,6.7771,6.7719,6.7715,6.7711,6.7707,6.7801,6.7808,6.7815,6.7941,0,0,6.7838,6.7841,0,0,0,0,0,0,0,0,6.7519,6.7534,6.7656,6.7657,6.7657,6.7727,6.7717,6.7828,6.772,6.7695,6.771,6.7705,6.7781,6.779,6.7817,6.7945,6.7949,6.7839,6.7843,6.7846,6.7849,0,0,0,0,0,0,0,6.7512,6.753,6.7707,6.7658,6.7659,6.7643,6.7653,6.7737,6.7759,6.7697,6.7693,6.7706,6.778,6.781,6.7819,6.7951,6.7839,6.7845,6.785,6.7853,6.8186,6.819,0,0,0,0,0,0,6.7507,6.7524,6.7704,6.771,6.7577,6.765,6.7662,6.7708,6.7758,6.7762,6.7709,6.7703,6.7799,6.781,6.7822,6.7972,6.7846,6.7853,6.7858,6.8181,6.8187,6.8191,0,0,0,0,0,0,6.7502,6.7523,6.77,6.7616,6.7637,6.7659,6.7711,6.7712,6.7742,6.7768,6.777,6.7737,6.7797,6.7811,6.7912,6.7975,6.7857,6.7864,6.8176,6.8183,6.8189,6.8274,0,0,0,0,0,0,6.7495,6.7522,6.7572,6.7618,6.7642,6.7791,6.7715,6.7717,6.7756,6.7749,6.7794,6.7797,6.7795,6.7901,6.792,6.7983,6.7869,6.8171,6.8179,6.8187,6.8265,6.8282,6.8297,0,0,0,0,0,6.7486,6.759,6.7575,6.7597,6.7706,6.7795,6.7808,6.7806,6.7761,6.781,6.7827,6.7796,6.7965,6.7912,6.7932,6.7999,6.8167,6.8177,6.8186,6.8258,6.8279,6.8296,0,0,0,0,0,0,6.7549,6.7596,6.758,6.7702,6.7746,6.7786,6.7848,6.7828,6.7882,6.7873,6.7865,6.7875,6.798,6.7999,6.7939,6.8122,6.8058,6.8073,6.8106,6.8126,6.8141,6.8134,6.7876,0,0,0,0,0,6.7577,6.7649,6.7685,6.7789,6.7812,6.7827,6.7865,6.786,6.7903,6.792,6.7943,6.7984,6.8046,6.8087,6.8145,6.8267,6.8275,6.8323,6.8338,6.8351,6.8364,6.8428,6.8449,6.8223,6.8223,6.8223,0,0,6.7636,6.7671,6.7716,6.7803,6.7836,6.7907,6.7842,6.792,6.7972,6.793,6.8028,6.8046,6.8091,6.8203,6.8253,6.8222,6.8428,6.8364,6.8374,6.8379,6.8441,6.8462,6.8481,6.823,6.8229,6.8228,0,0,6.7779,6.7814,6.7904,6.7939,6.799,6.7999,6.8021,6.8065,6.8077,6.8175,6.8145,6.8204,6.8312,6.8345,6.8375,6.8531,6.8504,6.8549,6.8631,6.8695,6.8712,6.8728,6.8783,6.8803,6.8562,6.8562,6.8562,0,6.7845,6.7955,6.7953,6.8034,6.8072,6.804,6.813,6.8163,6.8229,6.8255,6.822,6.8354,6.8381,6.85,6.8538,6.8564,6.8587,6.8545,6.8711,6.8726,6.8741,6.8793,6.8813,6.8567,6.8567,6.8566,6.8565,0,6.8032,6.8108,6.8175,6.8243,6.8289,6.8374,6.8382,6.8427,6.8417,6.8429,6.8528,6.856,6.8624,6.8652,6.8642,6.8769,6.8748,6.8712,6.8648,6.8768,6.8816,6.8836,6.8575,6.8573,6.8571,6.857,0,0,6.8218,6.8285,6.831,6.834,6.8394,6.8451,6.8533,6.8599,6.8638,6.8684,6.8751,6.8843,6.881,6.8845,6.8838,6.8893,6.9013,6.885,6.8851,6.8879,6.9154,6.9181,6.9204,6.8996,6.8999,6.9002,6.915,0,6.8365,6.8513,6.8514,6.8648,6.8718,6.8688,6.8759,6.8798,6.8811,6.8869,6.8881,6.8946,6.8898,6.8919,6.8973,6.8988,6.9068,6.8977,6.9056,6.9059,6.9046,6.923,6.9258,6.9396,6.9169,6.9172,6.9174,0,6.8557,6.8613,6.8756,6.88,6.8828,6.8893,6.8953,6.9009,6.9052,6.9057,6.9096,6.9081,6.9161,6.9095,6.9204,6.9142,6.9174,6.9186,6.9191,6.9198,6.9124,6.9241,6.944,6.9461,6.9204,6.9202,6.92,0,6.8678,6.8788,6.8888,6.8915,6.8969,6.9014,6.9038,6.9077,6.9116,6.9167,6.9192,6.9251,6.9282,6.9327,6.9326,6.9278,6.9437,6.937,6.9441,6.9441,6.9476,6.9474,6.9683,6.9497,6.9497,6.9496,6.9496,0,6.8842,6.893,6.8944,6.9005,6.9102,6.91,6.9195,6.9214,6.9249,6.9311,6.9287,6.9345,6.9341,6.9399,6.9399,6.9489,6.9503,6.9508,6.9507,6.9511,6.951,6.9531,6.9522,6.9502,6.9501,6.95,6.9499,0,6.8994,6.9006,6.9113,6.9156,6.9168,6.9238,6.9272,6.9329,6.934,6.9419,6.9437,6.9452,6.9519,6.9524,6.96,6.9599,6.9709,6.9697,6.9696,6.9694,6.9764,6.9758,6.9994,7.0024,6.9819,6.9821,6.9823,0,6.9098,6.9166,6.9216,6.9258,6.9285,6.9352,6.9393,6.9392,6.9434,6.9488,6.9538,6.9603,6.9655,6.9763,6.9779,6.9837,6.9826,6.9905,6.9834,6.9836,6.9827,6.9823,6.9829,6.9919,6.9921,6.9923,6.9924,0,6.9281,6.9284,6.9345,6.9409,6.9459,6.9508,6.9553,6.9588,6.9592,6.964,6.971,6.9751,6.983,6.9894,6.9951,6.9971,6.9948,6.9946,6.9966,6.997,6.9967,6.9969,6.9733,6.9941,6.9939,6.9938,6.9937,6.9937,6.9412,6.9471,6.9516,6.9584,6.9619,6.9662,6.9718,6.9736,6.9796,6.9862,6.9857,6.9934,6.9972,7.0047,7.0072,7.013,7.0103,7.0131,7.0138,7.0145,7.0153,6.9958,7.014,7.0139,7.0139,7.0139,7.0138,0,6.9594,6.9622,6.9685,6.9751,6.9804,6.978,6.9829,6.9874,6.9944,6.9983,7.0036,7.0115,7.0177,7.0199,7.0258,7.0301,7.0291,7.0316,7.0313,7.0318,7.0174,7.0151,7.0323,7.0323,7.0323,7.0323,7.0323,7.0323,6.9695,6.9793,6.9801,6.9915,6.9941,7.0019,7.0049,7.0087,7.0119,7.021,7.0263,7.0277,7.0309,7.0371,7.0426,7.043,7.0453,7.0482,7.0482,7.0347,7.0328,7.0311,7.0289,7.0487,7.0488,7.0622,7.0623,7.0624]}]]